Weather History for Chipley, FL

Change the Weather History Date:

Monday, January 28, 2013

  Actual Average (KMAI) Record (KMAI)
Temperature  
Mean Temperature 70 °F 51 °F  
Max Temperature 77 °F 62 °F 77 °F (2013)
Min Temperature 62 °F 40 °F 27 °F (2003)
Degree Days  
Heating Degree Days 0    
Month to date heating degree days  
Since 1 July heating degree days  
Cooling Degree Days 4    
Month to date cooling degree days  
Year to date cooling degree days  
Growing Degree Days 20 (Base 50)    
Moisture  
Dew Point 62 °F    
Average Humidity 81    
Maximum Humidity 94    
Minimum Humidity 65    
Precipitation  
Precipitation 0.00 in 0.16 in 0.38 in (2009)
Month to date precipitation 4.46  
Year to date precipitation 4.46  
Sea Level Pressure  
Sea Level Pressure 30.19 in    
Wind  
Wind Speed 4 mph (SE)    
Max Wind Speed 9 mph    
Max Gust Speed 16 mph    
Visibility 9 miles    
Events      
T = Trace of Precipitation, MM = Missing Value Source: NWS Daily Summary

Daily Weather History Graph

Daily Weather History Graph

Search for Another Location

Airport:

Trip Planner

Search our weather history database for the weather conditions in past years. The results will help you decide how hot, cold, wet, or windy it might be!

Date:

Astronomy

Jan. 28, 2013 Rise Set
Actual Time 6:36 AM CST 5:15 PM CST
Civil Twilight 6:10 AM CST 5:40 PM CST
Nautical Twilight 5:41 AM CST 6:09 PM CST
Astronomical Twilight 5:12 AM CST 6:38 PM CST
Moon 6:57 PM CST (1/28) 7:10 AM CST (1/28)
Length of Visible Light 11h 29m
Length of Day
10h 39m
Full, 98% of the Moon is Illuminated
Jan 28
Full
Feb 3
Last Quarter
Feb 10
New
Feb 17
First Quarter
Feb 25
Full

Hourly Weather History & Observations

Time (CST) Temp. Dew Point Humidity Pressure Visibility Wind Dir Wind Speed Gust Speed Precip Events Conditions
12:15 AM 62.6 °F 60.8 °F 94% 30.23 in 10.0 mi ESE 4.6 mph - N/A   Clear
12:35 AM 62.6 °F 59.0 °F 88% 30.23 in 10.0 mi East 3.5 mph - N/A   Clear
12:55 AM 62.6 °F 59.0 °F 88% 30.21 in 10.0 mi ESE 8.1 mph 16.1 mph N/A   Clear
1:15 AM 62.6 °F 59.0 °F 88% 30.20 in 10.0 mi East 5.8 mph - N/A   Clear
1:35 AM 62.6 °F 59.0 °F 88% 30.20 in 10.0 mi SE 3.5 mph - N/A   Clear
1:55 AM 62.6 °F 57.2 °F 82% 30.21 in 10.0 mi Calm Calm - N/A   Clear
2:15 AM 62.6 °F 57.2 °F 82% 30.21 in 10.0 mi South 3.5 mph - N/A   Clear
2:35 AM 62.6 °F 57.2 °F 82% 30.21 in 10.0 mi Calm Calm - N/A   Clear
2:55 AM 62.6 °F 57.2 °F 82% 30.21 in 10.0 mi Calm Calm - N/A   Clear
3:15 AM 62.6 °F 57.2 °F 82% 30.21 in 10.0 mi Calm Calm - N/A   Clear
3:35 AM 62.6 °F 57.2 °F 82% 30.21 in 10.0 mi Calm Calm - N/A   Clear
3:55 AM 62.6 °F 57.2 °F 82% 30.21 in 10.0 mi Calm Calm - N/A   Clear
4:15 AM 62.6 °F 57.2 °F 82% 30.21 in 10.0 mi Calm Calm - N/A   Clear
4:35 AM 62.6 °F 57.2 °F 82% 30.21 in 8.0 mi Calm Calm - N/A   Clear
4:55 AM 64.4 °F 59.0 °F 83% 30.21 in 10.0 mi SE 4.6 mph - N/A   Clear
5:15 AM 64.4 °F 59.0 °F 83% 30.21 in 10.0 mi SE 4.6 mph - N/A   Clear
5:35 AM 64.4 °F 59.0 °F 83% 30.22 in 10.0 mi ESE 4.6 mph - N/A   Clear
5:55 AM 64.4 °F 59.0 °F 83% 30.22 in 10.0 mi SE 6.9 mph - N/A   Clear
6:15 AM 64.4 °F 60.8 °F 88% 30.22 in 10.0 mi SE 5.8 mph - N/A   Clear
6:35 AM 64.4 °F 60.8 °F 88% 30.23 in 10.0 mi ESE 4.6 mph - N/A   Clear
6:55 AM 64.4 °F 60.8 °F 88% 30.23 in 10.0 mi East 3.5 mph - N/A   Clear
7:15 AM 64.4 °F 60.8 °F 88% 30.23 in 10.0 mi East 4.6 mph - N/A   Clear
7:35 AM 64.4 °F 60.8 °F 88% 30.23 in 10.0 mi SE 3.5 mph - N/A   Clear
7:55 AM 64.4 °F 60.8 °F 88% 30.24 in 10.0 mi SE 5.8 mph - N/A   Scattered Clouds
8:15 AM 64.4 °F 60.8 °F 88% 30.24 in 10.0 mi ESE 4.6 mph - N/A   Partly Cloudy
8:35 AM 64.4 °F 60.8 °F 88% 30.24 in 10.0 mi ESE 3.5 mph - N/A   Clear
9:15 AM 66.2 °F 62.6 °F 88% 30.25 in 10.0 mi ESE 4.6 mph - N/A   Clear
9:35 AM 69.8 °F 62.6 °F 78% 30.25 in 10.0 mi ESE 3.5 mph - N/A   Clear
9:55 AM 69.8 °F 62.6 °F 78% 30.26 in 10.0 mi ESE 3.5 mph - N/A   Scattered Clouds
10:15 AM 71.6 °F 62.6 °F 73% 30.26 in 10.0 mi SE 6.9 mph - N/A   Mostly Cloudy
10:35 AM 71.6 °F 64.4 °F 78% 30.26 in 10.0 mi SE 6.9 mph - N/A   Overcast
11:15 AM 73.4 °F 62.6 °F 69% 30.25 in 10.0 mi SSE 8.1 mph - N/A   Mostly Cloudy
11:35 AM 73.4 °F 64.4 °F 73% 30.24 in 10.0 mi SSE 3.5 mph - N/A   Overcast
11:55 AM 75.2 °F 64.4 °F 69% 30.24 in 10.0 mi SE 5.8 mph - N/A   Overcast
12:35 PM 77.0 °F 64.4 °F 65% 30.21 in 10.0 mi South 5.8 mph - N/A   Overcast
12:55 PM 75.2 °F 64.4 °F 69% 30.20 in 10.0 mi SE 5.8 mph - N/A   Overcast
1:15 PM 75.2 °F 64.4 °F 69% 30.20 in 10.0 mi SSE 5.8 mph - N/A   Overcast
1:35 PM 75.2 °F 64.4 °F 69% 30.19 in 10.0 mi SSE 5.8 mph - N/A   Overcast
1:55 PM 75.2 °F 64.4 °F 69% 30.18 in 10.0 mi SE 9.2 mph - N/A   Overcast
2:15 PM 75.2 °F 64.4 °F 69% 30.17 in 10.0 mi SSE 8.1 mph - N/A   Overcast
2:35 PM 75.2 °F 62.6 °F 65% 30.17 in 10.0 mi SE 5.8 mph - N/A   Mostly Cloudy
2:55 PM 75.2 °F 62.6 °F 65% 30.17 in 10.0 mi SE 6.9 mph - N/A   Clear
3:15 PM 75.2 °F 62.6 °F 65% 30.17 in 10.0 mi SSE 8.1 mph - N/A   Scattered Clouds
3:35 PM 75.2 °F 62.6 °F 65% 30.16 in 10.0 mi SSE 5.8 mph - N/A   Partly Cloudy
3:55 PM 73.4 °F 62.6 °F 69% 30.16 in 10.0 mi SE 8.1 mph 16.1 mph N/A   Partly Cloudy
4:15 PM 73.4 °F 62.6 °F 69% 30.16 in 10.0 mi SSE 6.9 mph - N/A   Clear
4:35 PM 73.4 °F 64.4 °F 73% 30.16 in 10.0 mi SE 4.6 mph - N/A   Clear
4:55 PM 73.4 °F 64.4 °F 73% 30.17 in 10.0 mi SSE 4.6 mph - N/A   Clear
5:15 PM 71.6 °F 64.4 °F 78% 30.17 in 10.0 mi ESE 3.5 mph - N/A   Clear
5:35 PM 71.6 °F 64.4 °F 78% 30.17 in 10.0 mi ESE 3.5 mph - N/A   Clear
5:55 PM 69.8 °F 64.4 °F 83% 30.17 in 10.0 mi SSE 5.8 mph - N/A   Clear
6:15 PM 69.8 °F 64.4 °F 83% 30.17 in 10.0 mi SSE 5.8 mph - N/A   Clear
6:35 PM 69.8 °F 62.6 °F 78% 30.16 in 10.0 mi SSE 6.9 mph - N/A   Clear
6:55 PM 68.0 °F 62.6 °F 83% 30.16 in 10.0 mi SSE 4.6 mph - N/A   Clear
7:15 PM 68.0 °F 62.6 °F 83% 30.16 in 10.0 mi SE 4.6 mph - N/A   Scattered Clouds
7:35 PM 68.0 °F 62.6 °F 83% 30.16 in 10.0 mi SSE 6.9 mph - N/A   Mostly Cloudy
7:55 PM 68.0 °F 64.4 °F 88% 30.16 in 9.0 mi SE 8.1 mph - N/A   Overcast
8:15 PM 68.0 °F 64.4 °F 88% 30.16 in 8.0 mi SSE 5.8 mph - N/A   Overcast
8:35 PM 68.0 °F 64.4 °F 88% 30.16 in 7.0 mi SE 8.1 mph - N/A   Overcast
8:55 PM 68.0 °F 64.4 °F 88% 30.15 in 7.0 mi SE 8.1 mph - N/A   Overcast
9:15 PM 68.0 °F 64.4 °F 88% 30.15 in 7.0 mi SE 5.8 mph - N/A   Overcast
9:35 PM 68.0 °F 64.4 °F 88% 30.15 in 6.0 mi SE 6.9 mph - N/A   Overcast
9:55 PM 68.0 °F 64.4 °F 88% 30.15 in 7.0 mi SSE 3.5 mph - N/A   Overcast
10:15 PM 68.0 °F 64.4 °F 88% 30.15 in 7.0 mi Calm Calm - N/A   Overcast
10:35 PM 68.0 °F 64.4 °F 88% 30.15 in 5.0 mi SSE 4.6 mph - N/A   Overcast
10:55 PM 66.2 °F 64.4 °F 94% 30.14 in 2.5 mi SSE 4.6 mph - N/A   Overcast
11:15 PM 66.2 °F 64.4 °F 94% 30.14 in 1.8 mi SE 3.5 mph - N/A   Overcast
11:35 PM 68.0 °F 66.2 °F 94% 30.14 in 4.0 mi South 3.5 mph - N/A   Overcast
11:55 PM 68.0 °F 66.2 °F 94% 30.13 in 5.0 mi South 5.8 mph - N/A   Overcast